Flag for U.S.A. Weather past 2 weeks in Alexandria, Virginia, U.S.A.

Now
73 °F

Passing clouds.


Feels Like: 77 °F
Forecast: 65 / 83 °F
Wind: No wind

Location: Reagan National Airport

Current Time: Aug 29, 2014 at 10:55:24 PM

Latest Report: Aug 29, 2014 at 9:52 PM


Visibility: 10 mi

Pressure: 30.21 "Hg

Humidity: 53%

Dew point: 55 °F

Location of AlexandriaLocation

Historic Weather in Alexandria — Graph

°F

Alexandria temperature yesterday

Maximum temperature yesterday: 86 °F (at 4:52 PM)
Minimum temperature yesterday: 73 °F (at 11:52 PM)
Average temperature yesterday: 80 °F

Past Weeks' High & Low Weather Summary

 TemperatureHumidityPressure
High89 °F (Aug 20, 2:52 PM)85% (Aug 25, 6:52 AM)30.22 "Hg (Aug 25, 6:52 AM)
Low63 °F (Aug 15, 5:52 AM)27% (Aug 15, 2:52 PM)29.80 "Hg (Aug 19, 3:52 AM)
Average77 °F60%30.01 "Hg
* Reported Aug 14 8:52 PM — Aug 29 8:52 PM, Alexandria, Weather by CustomWeather, © 2014

Note: Actual official high and low records may vary slightly from our data, if they occured in-between our weather recording intervals... More about our weather records

Advertising

Alexandria weather history for previous 24 hours

 ConditionsComfort  
Time TempWeatherWind HumidityBarometerVisibility
8:52 PM
Aug 29
74 °FPassing clouds.No wind46%30.19 "Hg10 mi
7:52 PM76 °FPartly sunny.5 mph40%30.17 "Hg10 mi
6:52 PM78 °FPartly sunny.10 mph40%30.16 "Hg10 mi
5:52 PM81 °FPartly sunny.10 mph44%30.15 "Hg10 mi
4:52 PM82 °FPartly sunny.7 mph40%30.14 "Hg10 mi
2:52 PM81 °FScattered clouds.No wind35%30.16 "Hg10 mi
1:52 PM79 °FScattered clouds.3 mph36%30.17 "Hg10 mi
12:52 PM79 °FPartly sunny.No wind36%30.19 "Hg10 mi
11:52 AM77 °FPartly sunny.3 mph40%30.21 "Hg10 mi
10:52 AM76 °FScattered clouds.6 mph43%30.22 "Hg10 mi
9:52 AM73 °FScattered clouds.6 mph48%30.21 "Hg10 mi
8:52 AM70 °FScattered clouds.6 mph49%30.20 "Hg10 mi
7:52 AM68 °FScattered clouds.7 mph53%30.19 "Hg10 mi
6:52 AM65 °FPassing clouds.8 mph59%30.18 "Hg10 mi
5:52 AM65 °FPassing clouds.6 mph59%30.15 "Hg10 mi
4:52 AM67 °FClear.7 mph57%30.14 "Hg10 mi
3:52 AM68 °FPassing clouds.8 mph57%30.13 "Hg10 mi
2:52 AM69 °FClear.9 mph57%30.12 "Hg10 mi
1:52 AM70 °FClear.5 mph55%30.11 "Hg10 mi
12:52 AM72 °FClear.5 mph52%30.10 "Hg10 mi
11:52 PM
Aug 28
73 °FClear.9 mph50%30.09 "Hg10 mi
10:52 PM74 °FClear.10 mph48%30.08 "Hg10 mi
Weather by CustomWeather, © 2014

See weather overviewHow to use our weather pages